Regional Weather Roundup
Issued by NWS Sterling, VA

Home | Current Version | Previous Version | Graphics & Text | Print | Product List | Glossary On
Versions: 1 2 3 4 5 6 7 8 9 10 11 12 13 14 15 16 17 18 19 20 21 22 23 24 25 26 27 28 29 30 31 32 33 34 35 36 37 38 39 40 41 42 43 44 45 46 47 48 49 50
000
ASUS41 KLWX 300910
RWRLWX

REGIONAL WEATHER ROUNDUP
NATIONAL WEATHER SERVICE BALTIMORE MD/WASHINGTON DC
500 AM EDT SAT JUL 30 2016

Note: "FAIR" indicates few or no clouds below 12,000 feet
with no significant weather and/or obstructions to visibility.
 TC=TEMPERATURE CELSIUS

 * =Non NWS site. Station does not report precipitation (e.g. rain,
    snow, etc.), thunder, or fog.

DCZ001-MDZ009-015-VAZ040>042-051-053>054-301000-
WASHINGTON METRO

CITY           SKY/WX    TMP DP  RH WIND       PRES   REMARKS
WASHINGTON NAT MOCLDY    78  74  87 CALM      29.93S
DULLES         MOCLDY    74  71  91 CALM      29.94R
ANDREWS AFB    CLEAR     73  70  93 SE3       29.93R
FT BELVOIR     FAIR      72  70  96 CALM      29.93R FOG
LEESBURG*      FAIR      73  73 100 S3        29.95R
MANASSAS*      FAIR      72  72 100 CALM      29.94R
GAITHERSBURG*  PTCLDY    70  68  94 CALM      29.98R

$$

MDZ006>007-011-014-301000-
BALTIMORE METRO

CITY           SKY/WX    TMP DP  RH WIND       PRES   REMARKS
BWI AIRPORT    PTCLDY    73  71  93 CALM      29.93R
MD SCIENCE CTR   N/A     77  72  84 MISG      29.93R
MARTIN STATE   CLEAR     75  75 100 CALM      29.94R
ANNAPOLIS      CLEAR     78  73  84 CALM      29.92S
FORT MEADE*    CLEAR     68  68 100 CALM      29.95S

$$

MDZ012-015-019>023-301000-
MARYLAND EASTERN SHORE

CITY           SKY/WX    TMP DP  RH WIND       PRES   REMARKS
OCEAN CITY     CLEAR     72  70  93 CALM      29.94S
SALISBURY      NOT AVBL
BAY BRIDGE AP* CLEAR     79  77  94 S5        29.92S
CAMBRIDGE*     CLEAR     72  72 100 CALM      29.93R
EASTON*        CLEAR     75  75 100 CALM      29.97S

$$

MDZ017>025-301000-
SOUTHERN MARYLAND

CITY           SKY/WX    TMP DP  RH WIND       PRES   REMARKS
PATUXENT RIVER NOT AVBL
ST INIGOES     CLEAR     73  72  96 E3        29.92S
LEONARDTOWN*   CLEAR     72  70  94 CALM      29.95S

$$

MDZ003>005-301000-
NORTH CENTRAL MARYLAND

CITY           SKY/WX    TMP DP  RH WIND       PRES   REMARKS
FREDERICK*     PTCLDY    70  70 100 CALM      29.97R FOG
HAGERSTOWN APT CLEAR     74  68  81 N3        29.95R

$$

MDZ501>502-301000-
WESTERN MARYLAND

CITY           SKY/WX    TMP DP  RH WIND       PRES   REMARKS
OAKLAND*       CLOUDY    66  63  88 CALM      30.04S
CUMBERLAND*    CLOUDY    70  70 100 N3        29.99S

$$

VAZ025>031-301000-
SHENANDOAH VALLEY

CITY           SKY/WX    TMP DP  RH WIND       PRES   REMARKS
WINCHESTER*    FAIR      72  70  94 CALM      29.95R
FRONT ROYAL*   CLOUDY    72  70  94 CALM      29.93S
LURAY*         NOT AVBL
NEW MARKET*    CLOUDY    70  68  94 CALM      29.95S
STAUNTON*      CLOUDY    70  69  98 CALM      29.99S FOG
WAYNESBORO*    CLOUDY    72  69  90 CALM      29.99S

$$

WVZ021-048>050-054>055-301000-
EASTERN WEST VIRGINIA PANHANDLE

CITY           SKY/WX    TMP DP  RH WIND       PRES   REMARKS
MARTINSBURG    FAIR      69  68  96 CALM      29.94R FOG
PETERSBURG*    CLOUDY    70  70  98 CALM      29.96R FOG

$$

VAZ036>039-050-301000-
CENTRAL FOOTHILLS

CITY           SKY/WX    TMP DP  RH WIND       PRES   REMARKS
CHARLOTTESVILL FAIR      73  70  90 CALM      29.95R
CULPEPER*      MOCLDY    73  73 100 CALM      29.95R FOG
ORANGE*          N/A     73  73 100 CALM      29.96R
GORDONSVILLE*  PTSUNNY   72  72 100 CALM      29.94S
WARRENTON*     FAIR      73  69  86 CALM      29.93R

$$

VAZ055>057-301000-
NORTH AND CENTRAL PIEDMONT

CITY           SKY/WX    TMP DP  RH WIND       PRES   REMARKS
FREDERICKSBRG* FAIR      73  73 100 CALM      29.93R
STAFFORD*      FAIR      69  68  97 CALM      29.97S FOG

$$

NCZ024-NYZ072-PAZ021-071-VAZ022-071-301000-
OTHER REGIONAL OBSERVATIONS

CITY           SKY/WX    TMP DP  RH WIND       PRES   REMARKS
NEW YORK CITY  CLEAR     75  67  76 NW3       29.97S
PHILADELPHIA   MOCLDY    74  71  91 E3        29.95R
PITTSBURGH     CLOUDY    70  64  81 CALM      29.94S
ROANOKE        FAIR      71  70  96 W5        29.99F
RICHMOND       FAIR      73  72  96 CALM      29.94R
RALEIGH        PTCLDY    75  71  87 CALM      29.93S

$$

ANZ530>537-301000-
MARINE OBSERVATIONS

STATION/POSITION TIME  TEMP    WIND        PRES
                       AIR SEA DIR/SP/G
                 (UTC) (F)     (DEG/KT/KT) (MB)
THOMAS PT LIGHT  0900   81 84  200/  9/ 10 1014.9R
BALT KEY BRIDGE  0848   77     190/  3/  4 1013.3R
COVE POINT       0848   80     230/  7/  9 1013.9R
LEWISETTA        0848   79 86  210/  4/  5 1013.1R
SOLOMONS ISLAND  0842   79 85  200/  4/  5   N/A
PINEY POINT      0836          210/  7/  7   N/A

$$




USA.gov is the U.S. government's official web portal to all federal, state and local government web resources and services.